{"data":{"norad_id":44072,"epoch":"2026-05-25T03:26:12.833376Z","epoch_age_seconds":61883,"freshness":"FRESH","line1":"1 44072U 19015A   26145.14320409  .00000044  00000+0  11653-4 0  9991","line2":"2 44072  97.8642 220.2579 0001393  87.6875 272.4498 14.83648672388632","mean_motion":14.83648672,"eccentricity":0.0001393,"inclination_deg":97.8642,"raan_deg":220.2579,"arg_perigee_deg":87.6875,"mean_anomaly_deg":272.4498,"bstar":1.1653e-5,"rev_number":38863,"period_min":97.058018328479,"perigee_km":616.85612146,"apogee_km":618.80519805,"semimajor_km":6995.967659755,"source":"CELESTRAK","updated_at":"2026-05-25T13:37:55.937865Z"}}